Tracking 35275 objects as of 9-Sep-2026
HD Live streaming from Space Station
objects crossing your sky now

STARLINK-31908

Track STARLINK-31908 now!
10-day predictions
STARLINK-31908 is classified as:


NORAD ID: 59901
Int'l Code: 2024-100S
Launch date: May 28, 2024
Source: United States (US)
Launch site: AIR FORCE EASTERN TEST RANGE (AFETR)
Your satellite tracking list
Your tracking list is empty




NASA's NSSDC Master Catalog

Two Line Element Set (TLE):
1 59901U 24100S   26252.13339719  .00001312  00000-0  57166-4 0  9990
2 59901  43.0025 162.3624 0001112 271.1755  88.8969 15.27584173129280
Source of the keplerian elements: AFSPC